Location: Bh?mavarapp?du
(16.7041°N, 80.6518°E)
Time: 01:37:57
(UTC+00:00)

HJ-1C - Pass Details

Date: 21 April 2021
Orbit: 429 x 438 km, 97.1° (Epoch: 08 May)

Event Time Altitude Azimuth Distance (km) Brightness Sun altitude
Exits shadow 13:44:07 - 160° (SSE) 1,692 6.0 -12.4°
Reaches altitude 10° 13:44:31 10° 159° (SSE) 1,520 5.7 -12.4°
Maximum altitude 13:47:44 61° 79° (E) 491 3.3 -13.2°
Drops below altitude 10° 13:50:58 10° 358° (N) 1,528 6.3 -13.9°
Sets 13:52:59 0° 354° (N) 2,398 7.4 -14.4°
